Terminal Aerodrome Forecast
Issued by NWS Omaha/Valley, NE

Home | Current Version | Previous Version | Text Only | Print | Product List | Glossary On
Versions: 1 2 3 4 5 6 7 8 9 10 11 12 13 14 15 16 17 18 19 20 21 22 23 24 25 26
000
FTUS43 KOAX 181723
TAFOMA
TAF
KOMA 181723Z 1818/1918 16010KT P6SM SKC
     FM190300 16007KT 4SM BR BKN100
     FM191000 16007KT 1 1/2SM BR OVC020
     FM191300 15006KT 2SM BR BKN008
     FM191500 15006KT 3SM BR OVC003=

USA.gov is the U.S. government's official web portal to all federal, state and local government web resources and services.